| time (UTC) | temp F | wind direction | speed MPH | gust MPH | rain 1hr in | rain 24hr in | rain mn in | humidity % | barometer mb |
| 20260904123635 | 77 | 100 | 0.0 | 1.0 | 0.00 | 0.11 | 0.11 | 95 | 1014.5 |
| 20260904123135 | 77 | 100 | 0.0 | 1.0 | 0.00 | 0.11 | 0.11 | 95 | 1014.4 |
| 20260904122634 | 77 | 100 | 0.0 | 1.0 | 0.00 | 0.11 | 0.11 | 95 | 1014.4 |
| 20260904122135 | 77 | 100 | 0.0 | 0.0 | 0.00 | 0.11 | 0.11 | 95 | 1014.4 |
| 20260904121633 | 77 | 100 | 0.0 | 0.0 | 0.00 | 0.11 | 0.11 | 95 | 1014.3 |
| 20260904121133 | 76 | 100 | 0.0 | 0.0 | 0.00 | 0.11 | 0.11 | 95 | 1014.4 |
| 20260904120633 | 76 | 100 | 0.0 | 0.0 | 0.00 | 0.11 | 0.11 | 95 | 1014.3 |
| 20260904120133 | 76 | 100 | 0.0 | 0.0 | 0.00 | 0.11 | 0.11 | 95 | 1014.4 |
| 20260904115909 | 76 | 100 | 0.0 | 0.0 | 0.00 | 0.11 | 0.11 | 95 | 1014.4 |
| 20260904115633 | 76 | 100 | 0.0 | 0.0 | 0.00 | 0.11 | 0.11 | 95 | 1014.4 |
| 20260904114633 | 76 | 100 | 0.0 | 0.0 | 0.00 | 0.11 | 0.11 | 95 | 1014.4 |
| 20260904114133 | 76 | 100 | 0.0 | 0.0 | 0.00 | 0.11 | 0.11 | 95 | 1014.3 |
| 20260904113633 | 76 | 100 | 0.0 | 0.0 | 0.00 | 0.11 | 0.11 | 95 | 1014.2 |
| 20260904113132 | 76 | 100 | 0.0 | 0.0 | 0.00 | 0.11 | 0.11 | 95 | 1014.2 |
| 20260904112901 | 76 | 100 | 0.0 | 0.0 | 0.00 | 0.11 | 0.11 | 95 | 1014.3 |
| 20260904112130 | 76 | 100 | 0.0 | 0.0 | 0.00 | 0.11 | 0.11 | 95 | 1014.2 |
| 20260904111902 | 76 | 100 | 0.0 | 0.0 | 0.00 | 0.11 | 0.11 | 95 | 1014.3 |
| 20260904111131 | 76 | 100 | 0.0 | 0.0 | 0.00 | 0.11 | 0.11 | 95 | 1014.3 |
| 20260904110630 | 76 | 100 | 0.0 | 0.0 | 0.00 | 0.11 | 0.11 | 95 | 1014.3 |
| 20260904110129 | 76 | 100 | 0.0 | 0.0 | 0.00 | 0.11 | 0.11 | 95 | 1014.3 |
| 20260904105629 | 76 | 100 | 0.0 | 0.0 | 0.00 | 0.11 | 0.11 | 95 | 1014.3 |
| 20260904105129 | 76 | 100 | 0.0 | 0.0 | 0.00 | 0.11 | 0.11 | 95 | 1014.1 |
| 20260904104629 | 76 | 100 | 0.0 | 0.0 | 0.00 | 0.11 | 0.11 | 95 | 1014.1 |
| 20260904104129 | 76 | 100 | 0.0 | 0.0 | 0.00 | 0.11 | 0.11 | 95 | 1014.1 |
| 20260904103858 | 76 | 100 | 0.0 | 0.0 | 0.00 | 0.11 | 0.11 | 95 | 1014.0 |
| 20260904103128 | 76 | 100 | 0.0 | 0.0 | 0.00 | 0.11 | 0.11 | 95 | 1013.9 |
| 20260904102627 | 76 | 100 | 0.0 | 0.0 | 0.00 | 0.11 | 0.11 | 95 | 1013.9 |
| 20260904102127 | 76 | 100 | 0.0 | 0.0 | 0.00 | 0.11 | 0.11 | 95 | 1013.9 |
| 20260904101627 | 76 | 100 | 0.0 | 0.0 | 0.00 | 0.11 | 0.11 | 95 | 1013.8 |
| 20260904101357 | 76 | 100 | 0.0 | 0.0 | 0.00 | 0.11 | 0.11 | 95 | 1013.7 |
| 20260904100627 | 76 | 100 | 0.0 | 0.0 | 0.00 | 0.11 | 0.11 | 95 | 1013.7 |
| 20260904100127 | 76 | 100 | 0.0 | 0.0 | 0.00 | 0.11 | 0.11 | 95 | 1013.7 |
| 20260904095627 | 76 | 100 | 0.0 | 1.0 | 0.00 | 0.11 | 0.11 | 95 | 1013.7 |
| 20260904095125 | 76 | 100 | 0.0 | 1.0 | 0.00 | 0.11 | 0.11 | 95 | 1013.7 |
| 20260904094622 | 76 | 100 | 0.0 | 1.0 | 0.00 | 0.11 | 0.11 | 95 | 1013.6 |
| 20260904094353 | 77 | 100 | 0.0 | 1.0 | 0.00 | 0.11 | 0.11 | 95 | 1013.7 |
| 20260904093623 | 77 | 100 | 0.0 | 1.0 | 0.00 | 0.11 | 0.11 | 95 | 1013.5 |
| 20260904093123 | 77 | 100 | 0.0 | 1.0 | 0.00 | 0.11 | 0.11 | 95 | 1013.6 |
| 20260904092623 | 76 | 100 | 0.0 | 1.0 | 0.00 | 0.11 | 0.11 | 95 | 1013.5 |
| 20260904092123 | 77 | 100 | 0.0 | 0.0 | 0.00 | 0.11 | 0.11 | 95 | 1013.5 |
| 20260904091623 | 77 | 100 | 0.0 | 0.0 | 0.00 | 0.11 | 0.11 | 95 | 1013.6 |
| 20260904091355 | 77 | 100 | 0.0 | 0.0 | 0.00 | 0.11 | 0.11 | 95 | 1013.6 |
| 20260904090623 | 77 | 100 | 0.0 | 1.0 | 0.00 | 0.11 | 0.11 | 95 | 1013.6 |
| 20260904090123 | 77 | 100 | 0.0 | 1.0 | 0.00 | 0.11 | 0.11 | 95 | 1013.6 |
| 20260904085621 | 77 | 100 | 0.0 | 1.0 | 0.00 | 0.11 | 0.11 | 95 | 1013.6 |
| 20260904085121 | 77 | 100 | 0.0 | 1.0 | 0.00 | 0.11 | 0.11 | 95 | 1013.5 |
| 20260904084621 | 77 | 100 | 0.0 | 0.0 | 0.00 | 0.11 | 0.11 | 95 | 1013.5 |
| 20260904084121 | 77 | 100 | 0.0 | 0.0 | 0.00 | 0.11 | 0.11 | 95 | 1013.5 |
| 20260904083621 | 77 | 100 | 0.0 | 0.0 | 0.00 | 0.11 | 0.11 | 95 | 1013.5 |
| 20260904083121 | 77 | 100 | 0.0 | 0.0 | 0.00 | 0.11 | 0.11 | 95 | 1013.5 |
| 20260904082621 | 77 | 100 | 0.0 | 1.0 | 0.00 | 0.11 | 0.11 | 95 | 1013.4 |
| 20260904082351 | 77 | 100 | 0.0 | 1.0 | 0.00 | 0.11 | 0.11 | 95 | 1013.5 |
| 20260904081852 | 77 | 100 | 0.0 | 1.0 | 0.00 | 0.11 | 0.11 | 95 | 1013.5 |
| 20260904081120 | 77 | 100 | 0.0 | 1.0 | 0.00 | 0.11 | 0.11 | 95 | 1013.5 |
| 20260904080619 | 77 | 100 | 0.0 | 1.0 | 0.00 | 0.11 | 0.11 | 95 | 1013.5 |
| 20260904080119 | 78 | 100 | 0.0 | 1.0 | 0.00 | 0.11 | 0.11 | 95 | 1013.6 |
| 20260904075619 | 77 | 100 | 0.0 | 0.0 | 0.00 | 0.11 | 0.11 | 95 | 1013.7 |
| 20260904075119 | 77 | 100 | 0.0 | 0.0 | 0.00 | 0.11 | 0.11 | 95 | 1013.7 |
| 20260904074618 | 77 | 100 | 0.0 | 0.0 | 0.00 | 0.11 | 0.11 | 95 | 1013.8 |
| 20260904074117 | 77 | 100 | 0.0 | 1.0 | 0.00 | 0.11 | 0.11 | 95 | 1013.7 |
| 20260904073849 | 77 | 100 | 0.0 | 1.0 | 0.00 | 0.11 | 0.11 | 95 | 1013.8 |
| 20260904073117 | 77 | 100 | 0.0 | 0.0 | 0.00 | 0.11 | 0.11 | 94 | 1013.8 |
| 20260904072848 | 77 | 100 | 0.0 | 0.0 | 0.00 | 0.11 | 0.11 | 94 | 1013.7 |
| 20260904072117 | 77 | 100 | 0.0 | 0.0 | 0.00 | 0.11 | 0.11 | 94 | 1013.8 |
| 20260904071615 | 77 | 100 | 0.0 | 0.0 | 0.00 | 0.11 | 0.11 | 94 | 1013.7 |
| 20260904071115 | 77 | 100 | 0.0 | 0.0 | 0.00 | 0.11 | 0.11 | 94 | 1013.7 |
| 20260904070614 | 77 | 100 | 0.0 | 0.0 | 0.00 | 0.11 | 0.11 | 94 | 1013.8 |
| 20260904070345 | 78 | 100 | 0.0 | 0.0 | 0.00 | 0.11 | 0.11 | 94 | 1013.7 |
| 20260904065614 | 78 | 100 | 0.0 | 0.0 | 0.01 | 0.11 | 0.11 | 94 | 1013.8 |
| 20260904065115 | 78 | 100 | 0.0 | 0.0 | 0.03 | 0.11 | 0.11 | 94 | 1013.8 |
| 20260904064615 | 78 | 100 | 0.0 | 0.0 | 0.04 | 0.11 | 0.11 | 94 | 1013.9 |
| 20260904064119 | 78 | 100 | 0.0 | 0.0 | 0.07 | 0.11 | 0.11 | 94 | 1014.0 |
| 20260904064115 | 78 | 100 | 0.0 | 0.0 | 0.05 | 0.11 | 0.11 | 94 | 1013.9 |
| 20260904063113 | 78 | 100 | 0.0 | 0.0 | 0.08 | 0.11 | 0.11 | 93 | 1013.9 |
| 20260904062611 | 78 | 100 | 0.0 | 0.0 | 0.09 | 0.11 | 0.11 | 93 | 1013.9 |
| 20260904062110 | 78 | 100 | 0.0 | 0.0 | 0.09 | 0.11 | 0.11 | 93 | 1013.9 |
| 20260904061610 | 78 | 100 | 0.0 | 0.0 | 0.10 | 0.11 | 0.11 | 93 | 1013.9 |
| 20260904061111 | 78 | 100 | 0.0 | 1.0 | 0.10 | 0.11 | 0.11 | 93 | 1013.8 |
| 20260904060842 | 78 | 100 | 0.0 | 1.0 | 0.11 | 0.11 | 0.11 | 93 | 1014.0 |
| 20260904060111 | 79 | 100 | 0.0 | 1.0 | 0.11 | 0.11 | 0.11 | 92 | 1014.1 |
| 20260904055611 | 79 | 100 | 0.0 | 1.0 | 0.10 | 0.10 | 0.10 | 92 | 1014.3 |
| 20260904055111 | 79 | 100 | 0.0 | 1.0 | 0.08 | 0.08 | 0.09 | 92 | 1014.4 |
| 20260904054612 | 79 | 100 | 1.0 | 2.0 | 0.07 | 0.07 | 0.07 | 92 | 1014.4 |
| 20260904054111 | 79 | 100 | 1.0 | 2.0 | 0.06 | 0.06 | 0.06 | 91 | 1014.5 |
| 20260904053610 | 79 | 78 | 0.0 | 3.0 | 0.04 | 0.04 | 0.05 | 91 | 1014.5 |
| 20260904053111 | 79 | 91 | 1.0 | 3.0 | 0.03 | 0.03 | 0.04 | 91 | 1014.6 |
| 20260904052608 | 80 | 101 | 1.0 | 2.0 | 0.02 | 0.02 | 0.02 | 90 | 1014.7 |
| 20260904052110 | 80 | 82 | 1.0 | 2.0 | 0.02 | 0.02 | 0.02 | 90 | 1014.7 |
| 20260904051609 | 80 | 91 | 0.0 | 2.0 | 0.01 | 0.01 | 0.01 | 89 | 1014.8 |
| 20260904051108 | 80 | 113 | 0.0 | 2.0 | 0.01 | 0.01 | 0.01 | 89 | 1014.9 |
| 20260904050609 | 80 | 113 | 1.0 | 2.0 | 0.00 | 0.00 | 0.00 | 89 | 1014.9 |
| 20260904050109 | 80 | 105 | 0.0 | 2.0 | 0.00 | 0.00 | 0.00 | 90 | 1014.8 |
| 20260904045609 | 80 | 105 | 0.0 | 2.0 | 0.00 | 0.00 | 0.00 | 90 | 1014.6 |
| 20260904045110 | 80 | 109 | 0.0 | 2.0 | 0.00 | 0.00 | 0.00 | 91 | 1014.6 |
| 20260904044609 | 79 | 109 | 0.0 | 2.0 | 0.00 | 0.00 | 0.00 | 92 | 1014.5 |
| 20260904044109 | 79 | 109 | 1.0 | 2.0 | 0.00 | 0.00 | 0.00 | 91 | 1014.4 |
| 20260904043608 | 79 | 109 | 0.0 | 1.0 | 0.00 | 0.00 | 0.00 | 92 | 1014.5 |
| 20260904043337 | 79 | 109 | 0.0 | 0.0 | 0.00 | 0.00 | 0.00 | 91 | 1014.4 |
| 20260904042837 | 79 | 109 | 0.0 | 0.0 | 0.00 | 0.00 | 0.00 | 91 | 1014.3 |
| 20260904042339 | 79 | 109 | 0.0 | 1.0 | 0.00 | 0.00 | 0.00 | 91 | 1014.4 |
| 20260904041607 | 79 | 109 | 0.0 | 1.0 | 0.00 | 0.00 | 0.00 | 91 | 1014.3 |
| 20260904041107 | 79 | 109 | 0.0 | 0.0 | 0.00 | 0.00 | 0.00 | 91 | 1014.3 |
| 20260904040607 | 78 | 109 | 0.0 | 0.0 | 0.00 | 0.00 | 0.00 | 91 | 1014.2 |
| 20260904040107 | 79 | 109 | 0.0 | 0.0 | 0.00 | 0.00 | 0.00 | 90 | 1014.2 |
| 20260904035607 | 79 | 109 | 0.0 | 0.0 | 0.00 | 0.00 | 0.00 | 91 | 1014.3 |
| 20260904035107 | 79 | 109 | 0.0 | 0.0 | 0.00 | 0.00 | 0.00 | 91 | 1014.3 |
| 20260904034607 | 79 | 109 | 0.0 | 0.0 | 0.00 | 0.00 | 0.00 | 91 | 1014.3 |
| 20260904034105 | 79 | 109 | 0.0 | 0.0 | 0.00 | 0.00 | 0.00 | 90 | 1014.4 |
| 20260904033605 | 79 | 109 | 0.0 | 0.0 | 0.00 | 0.00 | 0.00 | 90 | 1014.3 |
| 20260904033105 | 79 | 109 | 0.0 | 0.0 | 0.00 | 0.00 | 0.00 | 90 | 1014.4 |
| 20260904032835 | 79 | 109 | 0.0 | 0.0 | 0.00 | 0.00 | 0.00 | 90 | 1014.5 |
| 20260904032336 | 79 | 109 | 0.0 | 0.0 | 0.00 | 0.00 | 0.00 | 89 | 1014.6 |
| 20260904031605 | 79 | 109 | 0.0 | 0.0 | 0.00 | 0.00 | 0.00 | 89 | 1014.6 |
| 20260904031105 | 80 | 109 | 0.0 | 0.0 | 0.00 | 0.00 | 0.00 | 88 | 1014.7 |
| 20260904030605 | 80 | 109 | 0.0 | 0.0 | 0.00 | 0.00 | 0.00 | 88 | 1014.7 |
| 20260904030335 | 80 | 109 | 0.0 | 0.0 | 0.00 | 0.00 | 0.00 | 88 | 1014.6 |
| 20260904025605 | 80 | 109 | 0.0 | 0.0 | 0.00 | 0.00 | 0.00 | 87 | 1014.7 |
| 20260904025103 | 80 | 109 | 0.0 | 0.0 | 0.00 | 0.00 | 0.00 | 87 | 1014.8 |
| 20260904024834 | 81 | 109 | 0.0 | 0.0 | 0.00 | 0.00 | 0.00 | 86 | 1014.8 |
| 20260904024103 | 81 | 109 | 0.0 | 1.0 | 0.00 | 0.00 | 0.00 | 86 | 1014.8 |
| 20260904023604 | 81 | 109 | 0.0 | 1.0 | 0.00 | 0.00 | 0.00 | 85 | 1014.7 |
| 20260904023101 | 81 | 109 | 0.0 | 1.0 | 0.00 | 0.00 | 0.00 | 84 | 1014.8 |
| 20260904022601 | 81 | 109 | 0.0 | 1.0 | 0.00 | 0.00 | 0.00 | 85 | 1014.9 |
| 20260904022332 | 81 | 205 | 0.0 | 0.0 | 0.00 | 0.00 | 0.00 | 85 | 1014.8 |
| 20260904021601 | 82 | 205 | 0.0 | 0.0 | 0.00 | 0.00 | 0.00 | 85 | 1014.7 |
| 20260904021101 | 82 | 205 | 0.0 | 0.0 | 0.00 | 0.00 | 0.00 | 84 | 1014.7 |
| 20260904020600 | 82 | 205 | 0.0 | 0.0 | 0.00 | 0.00 | 0.00 | 84 | 1014.8 |
| 20260904020059 | 82 | 205 | 0.0 | 0.0 | 0.00 | 0.00 | 0.00 | 83 | 1014.7 |
| 20260904015559 | 82 | 205 | 0.0 | 0.0 | 0.00 | 0.00 | 0.00 | 83 | 1014.7 |
| 20260904015059 | 82 | 205 | 0.0 | 1.0 | 0.00 | 0.00 | 0.00 | 82 | 1014.7 |
| 20260904014559 | 83 | 205 | 0.0 | 1.0 | 0.00 | 0.00 | 0.00 | 82 | 1014.6 |
| 20260904014059 | 83 | 205 | 0.0 | 1.0 | 0.00 | 0.00 | 0.00 | 82 | 1014.5 |
| 20260904013829 | 83 | 205 | 0.0 | 1.0 | 0.00 | 0.00 | 0.00 | 82 | 1014.6 |
| 20260904013703 | 83 | 205 | 0.0 | 0.0 | 0.00 | 0.00 | 0.00 | 82 | 1014.5 |
| 20260904012558 | 83 | 205 | 0.0 | 0.0 | 0.00 | 0.00 | 0.00 | 81 | 1014.5 |
| 20260904012330 | 83 | 205 | 0.0 | 1.0 | 0.00 | 0.00 | 0.00 | 80 | 1014.5 |
| 20260904011559 | 83 | 205 | 0.0 | 1.0 | 0.00 | 0.00 | 0.00 | 79 | 1014.4 |
| 20260904011057 | 83 | 112 | 0.0 | 1.0 | 0.00 | 0.00 | 0.00 | 80 | 1014.4 |
| 20260904010557 | 83 | 167 | 0.0 | 0.0 | 0.00 | 0.00 | 0.00 | 80 | 1014.4 |
| 20260904010057 | 84 | 167 | 0.0 | 0.0 | 0.00 | 0.00 | 0.00 | 80 | 1014.3 |
| 20260904005557 | 84 | 167 | 0.0 | 0.0 | 0.00 | 0.00 | 0.00 | 81 | 1014.2 |
| 20260904005057 | 84 | 167 | 0.0 | 2.0 | 0.00 | 0.00 | 0.00 | 80 | 1014.1 |
| 20260904004557 | 84 | 167 | 0.0 | 2.0 | 0.00 | 0.00 | 0.00 | 80 | 1014.2 |
| 20260904004057 | 85 | 223 | 0.0 | 1.0 | 0.00 | 0.00 | 0.00 | 81 | 1014.1 |
| 20260904003557 | 85 | 223 | 0.0 | 1.0 | 0.00 | 0.00 | 0.00 | 82 | 1014.1 |
| 20260904003057 | 85 | 223 | 0.0 | 1.0 | 0.00 | 0.00 | 0.00 | 81 | 1014.0 |
| 20260904002557 | 85 | 223 | 0.0 | 0.0 | 0.00 | 0.00 | 0.00 | 81 | 1014.0 |
| 20260904002055 | 85 | 223 | 0.0 | 0.0 | 0.00 | 0.00 | 0.00 | 80 | 1014.0 |
| 20260904001556 | 85 | 223 | 0.0 | 1.0 | 0.00 | 0.00 | 0.00 | 80 | 1013.9 |
| 20260904001055 | 86 | 223 | 0.0 | 2.0 | 0.00 | 0.00 | 0.00 | 80 | 1013.8 |
| 20260904000555 | 86 | 223 | 0.0 | 2.0 | 0.00 | 0.00 | 0.00 | 79 | 1013.7 |
| 20260904000054 | 87 | 223 | 0.0 | 1.0 | 0.00 | 0.00 | 0.00 | 79 | 1013.7 |
| 20260903235555 | 87 | 223 | 0.0 | 1.0 | 0.00 | 0.00 | 0.00 | 77 | 1013.7 |
| 20260903235055 | 87 | 131 | 0.0 | 2.0 | 0.00 | 0.00 | 0.00 | 76 | 1013.7 |
| 20260903234555 | 87 | 124 | 0.0 | 2.0 | 0.00 | 0.00 | 0.00 | 76 | 1013.6 |
| 20260903234055 | 88 | 228 | 0.0 | 2.0 | 0.00 | 0.00 | 0.00 | 75 | 1013.6 |
| 20260903233555 | 88 | 229 | 1.0 | 3.0 | 0.00 | 0.00 | 0.00 | 75 | 1013.5 |
| 20260903233053 | 88 | 233 | 1.0 | 4.0 | 0.00 | 0.00 | 0.00 | 74 | 1013.5 |
| 20260903232557 | 89 | 210 | 0.0 | 3.0 | 0.00 | 0.00 | 0.00 | 74 | 1013.5 |
| 20260903232553 | 89 | 221 | 0.0 | 4.0 | 0.00 | 0.00 | 0.00 | 73 | 1013.5 |
| 20260903231553 | 89 | 208 | 1.0 | 4.0 | 0.00 | 0.00 | 0.00 | 74 | 1013.4 |
| 20260903231053 | 89 | 209 | 1.0 | 4.0 | 0.00 | 0.00 | 0.00 | 73 | 1013.5 |
| 20260903230824 | 89 | 198 | 0.0 | 2.0 | 0.00 | 0.00 | 0.00 | 72 | 1013.4 |
| 20260903230053 | 90 | 195 | 1.0 | 3.0 | 0.00 | 0.00 | 0.00 | 71 | 1013.4 |
| 20260903225553 | 90 | 223 | 0.0 | 3.0 | 0.00 | 0.00 | 0.00 | 71 | 1013.4 |
| 20260903225051 | 90 | 210 | 1.0 | 2.0 | 0.00 | 0.00 | 0.00 | 72 | 1013.3 |
| 20260903224551 | 89 | 214 | 1.0 | 4.0 | 0.00 | 0.00 | 0.00 | 72 | 1013.3 |
| 20260903224322 | 89 | 92 | 0.0 | 4.0 | 0.00 | 0.00 | 0.00 | 71 | 1013.2 |
| 20260903223551 | 89 | 162 | 0.0 | 3.0 | 0.00 | 0.00 | 0.00 | 72 | 1013.3 |
| 20260903223051 | 89 | 229 | 0.0 | 4.0 | 0.00 | 0.00 | 0.00 | 71 | 1013.3 |
| 20260903222551 | 90 | 215 | 1.0 | 4.0 | 0.00 | 0.00 | 0.00 | 71 | 1013.3 |
| 20260903222051 | 89 | 216 | 1.0 | 4.0 | 0.00 | 0.00 | 0.00 | 70 | 1013.3 |
| 20260903221551 | 90 | 209 | 1.0 | 4.0 | 0.00 | 0.00 | 0.00 | 70 | 1013.3 |
| 20260903221051 | 90 | 112 | 1.0 | 3.0 | 0.00 | 0.00 | 0.00 | 70 | 1013.3 |
| 20260903220551 | 90 | 11 | 1.0 | 4.0 | 0.00 | 0.00 | 0.00 | 70 | 1013.3 |
| 20260903220049 | 90 | 211 | 1.0 | 4.0 | 0.00 | 0.00 | 0.00 | 71 | 1013.3 |
| 20260903215549 | 90 | 177 | 0.0 | 3.0 | 0.00 | 0.00 | 0.00 | 71 | 1013.3 |
| 20260903215049 | 90 | 136 | 1.0 | 4.0 | 0.00 | 0.00 | 0.00 | 70 | 1013.3 |
| 20260903214549 | 90 | 166 | 1.0 | 4.0 | 0.00 | 0.00 | 0.00 | 70 | 1013.4 |
| 20260903214049 | 90 | 220 | 1.0 | 3.0 | 0.00 | 0.00 | 0.00 | 70 | 1013.4 |
| 20260903213549 | 90 | 217 | 1.0 | 3.0 | 0.00 | 0.00 | 0.00 | 70 | 1013.3 |
| 20260903213048 | 90 | 236 | 1.0 | 5.0 | 0.00 | 0.00 | 0.00 | 70 | 1013.4 |
| 20260903212549 | 90 | 77 | 2.0 | 5.0 | 0.00 | 0.00 | 0.00 | 68 | 1013.4 |
| 20260903212049 | 90 | 186 | 1.0 | 4.0 | 0.00 | 0.00 | 0.00 | 67 | 1013.5 |
| 20260903211549 | 91 | 105 | 1.0 | 4.0 | 0.00 | 0.00 | 0.00 | 66 | 1013.6 |
| 20260903211318 | 91 | 99 | 1.0 | 4.0 | 0.00 | 0.00 | 0.00 | 67 | 1013.7 |
| 20260903210547 | 91 | 210 | 1.0 | 4.0 | 0.00 | 0.00 | 0.00 | 65 | 1013.7 |
| 20260903210047 | 91 | 203 | 1.0 | 5.0 | 0.00 | 0.00 | 0.00 | 63 | 1013.8 |
| 20260903205548 | 91 | 123 | 1.0 | 5.0 | 0.00 | 0.00 | 0.00 | 61 | 1013.8 |
| 20260903205047 | 91 | 217 | 1.0 | 6.0 | 0.00 | 0.00 | 0.00 | 60 | 1013.8 |
| 20260903204546 | 91 | 208 | 2.0 | 9.0 | 0.00 | 0.00 | 0.00 | 60 | 1013.9 |
| 20260903204047 | 91 | 184 | 2.0 | 9.0 | 0.00 | 0.00 | 0.00 | 59 | 1013.9 |
| 20260903203547 | 92 | 79 | 1.0 | 6.0 | 0.00 | 0.00 | 0.00 | 58 | 1013.9 |
| 20260903203047 | 92 | 152 | 2.0 | 5.0 | 0.00 | 0.00 | 0.00 | 58 | 1013.9 |
| 20260903202547 | 92 | 207 | 2.0 | 5.0 | 0.00 | 0.00 | 0.00 | 59 | 1013.9 |
| 20260903202317 | 93 | 101 | 2.0 | 6.0 | 0.00 | 0.00 | 0.00 | 58 | 1013.9 |
| 20260903201545 | 92 | 149 | 2.0 | 6.0 | 0.00 | 0.00 | 0.00 | 59 | 1013.9 |
| 20260903201045 | 92 | 80 | 3.0 | 10.0 | 0.00 | 0.00 | 0.00 | 60 | 1014.0 |
| 20260903200545 | 92 | 191 | 4.0 | 10.0 | 0.00 | 0.00 | 0.00 | 59 | 1014.0 |
| 20260903200045 | 92 | 82 | 3.0 | 8.0 | 0.00 | 0.00 | 0.00 | 57 | 1014.0 |
| 20260903195545 | 92 | 91 | 2.0 | 8.0 | 0.00 | 0.00 | 0.00 | 59 | 1014.0 |
| 20260903195045 | 92 | 81 | 1.0 | 5.0 | 0.00 | 0.01 | 0.00 | 57 | 1014.1 |
| 20260903194545 | 92 | 208 | 2.0 | 5.0 | 0.00 | 0.01 | 0.00 | 60 | 1014.2 |
| 20260903194045 | 92 | 96 | 2.0 | 5.0 | 0.00 | 0.01 | 0.00 | 58 | 1014.3 |
| 20260903193545 | 92 | 65 | 2.0 | 5.0 | 0.00 | 0.01 | 0.00 | 57 | 1014.3 |
| 20260903193043 | 92 | 105 | 2.0 | 5.0 | 0.00 | 0.01 | 0.00 | 57 | 1014.4 |
| 20260903192818 | 92 | 141 | 2.0 | 4.0 | 0.00 | 0.01 | 0.00 | 58 | 1014.5 |
| 20260903192543 | 92 | 102 | 1.0 | 4.0 | 0.00 | 0.01 | 0.00 | 57 | 1014.5 |
| 20260903191543 | 92 | 89 | 3.0 | 7.0 | 0.00 | 0.01 | 0.00 | 56 | 1014.5 |
| 20260903191043 | 92 | 58 | 3.0 | 7.0 | 0.00 | 0.01 | 0.00 | 54 | 1014.4 |
| 20260903190543 | 92 | 113 | 3.0 | 7.0 | 0.00 | 0.01 | 0.00 | 56 | 1014.5 |
| 20260903190043 | 92 | 108 | 3.0 | 7.0 | 0.00 | 0.01 | 0.00 | 55 | 1014.5 |
| 20260903185543 | 92 | 129 | 3.0 | 8.0 | 0.00 | 0.01 | 0.00 | 56 | 1014.6 |
| 20260903185044 | 92 | 126 | 3.0 | 8.0 | 0.00 | 0.01 | 0.00 | 56 | 1014.7 |
| 20260903184543 | 92 | 70 | 3.0 | 7.0 | 0.00 | 0.01 | 0.00 | 55 | 1014.6 |
| 20260903184040 | 93 | 60 | 3.0 | 7.0 | 0.00 | 0.01 | 0.00 | 54 | 1014.7 |
| 20260903183541 | 93 | 155 | 3.0 | 7.0 | 0.00 | 0.01 | 0.00 | 57 | 1014.7 |
| 20260903183312 | 92 | 58 | 3.0 | 7.0 | 0.00 | 0.01 | 0.00 | 57 | 1014.7 |
| 20260903182541 | 92 | 48 | 3.0 | 6.0 | 0.00 | 0.01 | 0.00 | 56 | 1014.7 |
| 20260903182041 | 92 | 51 | 3.0 | 6.0 | 0.00 | 0.01 | 0.00 | 57 | 1014.7 |
| 20260903181541 | 92 | 65 | 3.0 | 8.0 | 0.00 | 0.01 | 0.00 | 58 | 1014.8 |
| 20260903181041 | 92 | 85 | 4.0 | 8.0 | 0.00 | 0.01 | 0.00 | 58 | 1014.9 |
| 20260903180541 | 92 | 66 | 2.0 | 7.0 | 0.00 | 0.01 | 0.00 | 57 | 1014.9 |
| 20260903180041 | 92 | 110 | 2.0 | 5.0 | 0.00 | 0.01 | 0.00 | 59 | 1014.9 |
| 20260903175540 | 91 | 79 | 2.0 | 7.0 | 0.00 | 0.01 | 0.00 | 62 | 1015.1 |
| 20260903175039 | 91 | 82 | 3.0 | 7.0 | 0.00 | 0.01 | 0.00 | 62 | 1015.1 |
| 20260903174810 | 91 | 79 | 4.0 | 8.0 | 0.00 | 0.01 | 0.00 | 64 | 1015.3 |
| 20260903174037 | 91 | 39 | 3.0 | 8.0 | 0.00 | 0.01 | 0.00 | 64 | 1015.3 |
| 20260903173537 | 91 | 37 | 3.0 | 7.0 | 0.00 | 0.01 | 0.00 | 65 | 1015.4 |
| 20260903173037 | 91 | 84 | 3.0 | 7.0 | 0.00 | 0.01 | 0.00 | 62 | 1015.4 |
| 20260903172537 | 91 | 42 | 3.0 | 7.0 | 0.00 | 0.01 | 0.00 | 63 | 1015.5 |
| 20260903172037 | 91 | 100 | 3.0 | 7.0 | 0.00 | 0.01 | 0.00 | 64 | 1015.7 |
| 20260903171535 | 91 | 66 | 2.0 | 5.0 | 0.00 | 0.01 | 0.00 | 64 | 1015.7 |
| 20260903171034 | 91 | 47 | 2.0 | 7.0 | 0.00 | 0.01 | 0.00 | 63 | 1015.8 |
| 20260903170535 | 91 | 71 | 2.0 | 7.0 | 0.00 | 0.01 | 0.00 | 63 | 1015.8 |
| 20260903170033 | 91 | 99 | 2.0 | 5.0 | 0.00 | 0.01 | 0.00 | 63 | 1015.9 |
| 20260903165532 | 92 | 73 | 2.0 | 5.0 | 0.00 | 0.01 | 0.00 | 62 | 1015.9 |
| 20260903165032 | 92 | 117 | 2.0 | 6.0 | 0.00 | 0.01 | 0.00 | 66 | 1016.0 |
| 20260903164533 | 91 | 11 | 3.0 | 6.0 | 0.00 | 0.01 | 0.00 | 64 | 1016.1 |
| 20260903164033 | 91 | 41 | 3.0 | 6.0 | 0.00 | 0.01 | 0.00 | 63 | 1016.1 |
| 20260903163532 | 91 | 79 | 2.0 | 5.0 | 0.00 | 0.01 | 0.00 | 64 | 1016.2 |
| 20260903163032 | 91 | 57 | 3.0 | 6.0 | 0.00 | 0.01 | 0.00 | 64 | 1016.2 |
| 20260903162803 | 91 | 97 | 3.0 | 6.0 | 0.00 | 0.01 | 0.00 | 63 | 1016.2 |
| 20260903162032 | 92 | 76 | 3.0 | 7.0 | 0.00 | 0.01 | 0.00 | 63 | 1016.3 |
| 20260903161531 | 92 | 84 | 3.0 | 7.0 | 0.00 | 0.01 | 0.00 | 65 | 1016.2 |
| 20260903161031 | 91 | 65 | 3.0 | 6.0 | 0.00 | 0.01 | 0.00 | 66 | 1016.2 |
| 20260903160530 | 91 | 65 | 3.0 | 10.0 | 0.00 | 0.01 | 0.00 | 66 | 1016.3 |
| 20260903160302 | 90 | 280 | 3.0 | 10.0 | 0.00 | 0.01 | 0.00 | 67 | 1016.2 |
| 20260903155912 | 90 | 115 | 2.0 | 5.0 | 0.00 | 0.01 | 0.00 | 72 | 1016.3 |
| 20260903155636 | 90 | 356 | 3.0 | 8.0 | 0.00 | 0.01 | 0.00 | 67 | 1016.3 |
| 20260903155632 | 90 | 44 | 3.0 | 7.0 | 0.00 | 0.01 | 0.00 | 67 | 1016.3 |
| 20260903155628 | 90 | 83 | 2.0 | 7.0 | 0.00 | 0.01 | 0.00 | 69 | 1016.3 |
| 20260903154029 | 90 | 115 | 2.0 | 5.0 | 0.00 | 0.01 | 0.00 | 72 | 1016.3 |
| 20260903153628 | 89 | 53 | 2.0 | 7.0 | 0.00 | 0.01 | 0.00 | 69 | 1016.2 |
| 20260903153624 | 89 | 89 | 3.0 | 7.0 | 0.00 | 0.01 | 0.00 | 71 | 1016.2 |
| 20260903153620 | 89 | 72 | 3.0 | 7.0 | 0.00 | 0.01 | 0.00 | 70 | 1016.2 |
| 20260903153616 | 89 | 2 | 3.0 | 7.0 | 0.00 | 0.01 | 0.00 | 70 | 1016.2 |
| 20260903152027 | 89 | 53 | 2.0 | 7.0 | 0.00 | 0.01 | 0.00 | 69 | 1016.2 |
| 20260903151527 | 89 | 51 | 3.0 | 7.0 | 0.00 | 0.01 | 0.00 | 70 | 1016.0 |
| 20260903151027 | 89 | 16 | 2.0 | 7.0 | 0.00 | 0.01 | 0.00 | 69 | 1016.0 |
| 20260903150525 | 89 | 45 | 2.0 | 4.0 | 0.00 | 0.01 | 0.00 | 69 | 1016.0 |
| 20260903150025 | 88 | 70 | 2.0 | 5.0 | 0.00 | 0.01 | 0.00 | 70 | 1016.0 |
| 20260903145525 | 88 | 59 | 2.0 | 6.0 | 0.00 | 0.01 | 0.00 | 70 | 1015.9 |
| 20260903145023 | 87 | 77 | 2.0 | 6.0 | 0.00 | 0.01 | 0.00 | 71 | 1015.9 |
| 20260903144522 | 87 | 323 | 3.0 | 7.0 | 0.00 | 0.01 | 0.00 | 72 | 1016.0 |
| 20260903144023 | 87 | 320 | 3.0 | 7.0 | 0.00 | 0.01 | 0.00 | 75 | 1016.0 |
| 20260903143521 | 87 | 33 | 2.0 | 7.0 | 0.00 | 0.01 | 0.00 | 74 | 1016.0 |
| 20260903143021 | 86 | 43 | 2.0 | 6.0 | 0.00 | 0.01 | 0.00 | 77 | 1016.0 |
| 20260903142521 | 86 | 57 | 2.0 | 6.0 | 0.00 | 0.01 | 0.00 | 76 | 1016.0 |
| 20260903142018 | 85 | 325 | 2.0 | 4.0 | 0.00 | 0.01 | 0.00 | 80 | 1016.1 |
| 20260903141749 | 84 | 60 | 1.0 | 5.0 | 0.00 | 0.01 | 0.00 | 78 | 1016.1 |
| 20260903141019 | 84 | 325 | 2.0 | 5.0 | 0.00 | 0.01 | 0.00 | 79 | 1016.1 |
| 20260903140519 | 84 | 29 | 3.0 | 6.0 | 0.00 | 0.01 | 0.00 | 79 | 1016.0 |
| 20260903140250 | 84 | 65 | 2.0 | 6.0 | 0.00 | 0.01 | 0.00 | 80 | 1016.0 |
| 20260903135519 | 83 | 75 | 2.0 | 4.0 | 0.00 | 0.01 | 0.00 | 80 | 1016.0 |
| 20260903135250 | 83 | 68 | 2.0 | 4.0 | 0.00 | 0.01 | 0.00 | 80 | 1016.1 |
| 20260903134517 | 83 | 63 | 1.0 | 4.0 | 0.00 | 0.01 | 0.00 | 81 | 1016.2 |
| 20260903134249 | 83 | 52 | 1.0 | 4.0 | 0.00 | 0.01 | 0.00 | 81 | 1016.2 |
| 20260903133517 | 83 | 47 | 2.0 | 6.0 | 0.00 | 0.01 | 0.00 | 81 | 1016.1 |
| 20260903133017 | 83 | 78 | 2.0 | 6.0 | 0.00 | 0.01 | 0.00 | 82 | 1016.1 |
| 20260903132748 | 83 | 68 | 2.0 | 7.0 | 0.00 | 0.01 | 0.00 | 83 | 1016.2 |
| 20260903132017 | 82 | 77 | 2.0 | 7.0 | 0.00 | 0.01 | 0.00 | 84 | 1016.0 |
| 20260903131517 | 82 | 63 | 2.0 | 4.0 | 0.00 | 0.01 | 0.00 | 86 | 1016.1 |
| 20260903131017 | 81 | 357 | 2.0 | 4.0 | 0.00 | 0.01 | 0.00 | 87 | 1016.0 |
| 20260903130516 | 80 | 75 | 1.0 | 4.0 | 0.00 | 0.01 | 0.00 | 89 | 1016.0 |
| 20260903130017 | 79 | 57 | 0.0 | 3.0 | 0.00 | 0.01 | 0.00 | 90 | 1016.0 |
| 20260903125517 | 78 | 88 | 0.0 | 2.0 | 0.00 | 0.01 | 0.00 | 92 | 1015.9 |
| 20260903125018 | 78 | 88 | 0.0 | 2.0 | 0.00 | 0.01 | 0.00 | 93 | 1015.9 |
| 20260903124517 | 77 | 114 | 0.0 | 1.0 | 0.00 | 0.01 | 0.00 | 93 | 1015.8 |
| 20260903124017 | 77 | 70 | 0.0 | 1.0 | 0.00 | 0.01 | 0.00 | 93 | 1015.9 |